Regional Weather Roundup
Issued by NWS Green Bay, WI

Home | Current Version | Previous Version | Text Only | Print | Product List | Glossary On
Versions: 1 2 3 4 5 6 7 8 9 10 11 12 13 14 15 16 17 18 19 20 21 22 23 24 25 26 27 28 29 30 31 32 33 34 35 36 37 38 39 40 41 42 43 44 45 46 47 48 49 50
090
ASUS43 KGRB 210711
RWRGRB

NORTH-CENTRAL AND NORTHEAST WISCONSIN REGIONAL WEATHER ROUNDUP
NATIONAL WEATHER SERVICE GREEN BAY WI
200 AM CDT FRI JUL 21 2017

WIZ005-009-010>012-018-019-210800-
NORTH CENTRAL WISCONSIN

CITY           SKY/WX    TMP DP  RH WIND       PRES   REMARKS
IRONWOOD       CLEAR     59  59 100 CALM      29.98F FOG
MANITOWISH WTR FOG       57  57 100 CALM      30.00F VSB 1/2
ARBOR VITAE    CLEAR     62  60  93 CALM      30.00S
EAGLE RIVER    FOG       57  57 100 CALM      30.00F VSB 1/2
LAND O LAKES   CLEAR     56  56 100 CALM      30.02S FOG
RHINELANDER    FOG       58  58 100 CALM      30.01F VSB 1/4
PHILLIPS       PTCLDY    60  60 100 CALM      30.00S FOG
ANTIGO         CLEAR     60  59  97 CALM      30.02R
TOMAHAWK         N/A     56  55  96 CALM      30.02R
MERRILL        CLEAR     60  60 100 CALM      30.01R FOG
$$

WIZ013-073-210800-
NORTHEAST WISCONSIN

CITY           SKY/WX    TMP DP  RH WIND       PRES   REMARKS
IRON MOUNTAIN  PTCLDY    59  55  87 CALM      29.96F
MARINETTE      CLEAR     64  63  96 CALM      29.97S
OCONTO         CLEAR     63  63  99 CALM      29.95F
$$

WIZ017-030-035>037-045-210800-
CENTRAL WISCONSIN

CITY           SKY/WX    TMP DP  RH WIND       PRES   REMARKS
MEDFORD        CLEAR     62  61  99 CALM      30.01R FOG
WAUSAU         CLEAR     68  65  90 N5        29.99R
MOSINEE        CLEAR     68  64  88 CALM      30.01R
MARSHFIELD     CLEAR     63  60  90 CALM      30.00R FOG
WISC RAPIDS    FOG       64  63  96 CALM      30.01R VSB 3/4
STEVENS POINT  CLEAR     62  62 100 CALM      30.01R
WAUPACA        CLEAR     65  65  97 CALM      29.99R
SHAWANO        CLEAR     68  64  86 CALM      29.99R
CLINTONVILLE   CLEAR     64  64 100 CALM      29.99R
WAUTOMA        CLEAR     64  63  96 CALM      30.00S
$$

WIZ038-039-048-051-210800-
FOX VALLEY

CITY           SKY/WX    TMP DP  RH WIND       PRES   REMARKS
NWS GREEN BAY  CLEAR     66  66 100 S5        29.98R
APPLETON       CLEAR     66  63  88 W8        29.97R
OSHKOSH        CLEAR     69  65  86 CALM      29.97R
FOND DU LAC    CLEAR     68  65  90 CALM      29.99R
$$

WIZ022-050-052-210800-
EAST CENTRAL WISCONSIN

CITY           SKY/WX    TMP DP  RH WIND       PRES   REMARKS
EPHRAIM        FAIR      68  61  77 E5        29.96R
WASHINGTON ISL PTSUNNY   62  61  99 CALM      29.95S FOG
STURGEON BAY     N/A     70  62  76 NE6       29.96F
MANITOWOC      CLEAR     70  67  90 W8        29.98R
SHEBOYGAN      CLEAR     67  67 100 CALM      29.97S FOG
$$

LMZ563-521-522-541>543-210800-
LAKESHORE

STATION/POSITION TIME  TEMP    WIND        PRES    VSBY  WAVE
                       AIR SEA DIR/SP/G                  HT/PER
                 (UTC) (F)     (DEG/KT/KT) (MB)    (MI)  (FT/S)
SHEBOYGAN LKSHOR 0700   72     250/  5/  5 1014.2R
KEWAUNEE LKSHORE 0648          290/  3/  5 1013.4R
NORTHPORT PIER   0630   67      CALM  /  2 1014.2R
N MID LAKE BUOY  0650   66 65  130/  2/  4 1015.0R         1/ 5
S GREEN BAY BUOY 0700   73 73   30/ 10/ 12 1014.0
SISTER BAY LKSHO 0702   69      90/  9/ 12   N/A
CHAMBERS ISLAND  0640   71      40/  4/  5 1013.5F
MENOMINEE LKSHOR 0648          320/  3/  3 1014.2S
$$




USA.gov is the U.S. government's official web portal to all federal, state and local government web resources and services.